To NAV CANADA Home Page Login to a new session Search on AWWS site Feedback and Comments Disclaimer Vers la page française équivalente Tips FAQ What's new on the site To the Forecasts and Observations / NOTAM section To "File a Flight Plan" website Publications and other links Update of the User's profile FIC Telephone Numbers My Weather Data Folder Route Weather Data Regional Weather Data Local Weather Data To the Forecasts and Observations / NOTAM section
Request Generated 11/27/2015 at 11:47:21 UTC . Weather information available at that time is displayed.



LWIS CYZG 271100Z AUTO 28017KT M23/M27 A2991=
LWIS CYZG 271000Z AUTO 23016KT M23/M27 A2991=
LWIS CYZG 270900Z AUTO 23007KT M24/M27 A2991=

CYZG - No TAF is issued for this station

Your time UTC time
Weather data provided by Environment Canada and NAV CANADA